Location: Grange Rosano
(44.4500°N, 6.9667°E)
Time: 19:01:23
(UTC+00:00)

Cosmos 1536 Rocket - Pass Details

Date: 26 May 2022
Orbit: 604 x 632 km, 82.5° (Epoch: 01 July)

Event Time Altitude Azimuth Distance (km) Brightness Sun altitude
Exits shadow 02:08:10 26° 211° (SSW) 1,240 4.5 -15.1°
Maximum altitude 02:10:31 58° 281° (W) 730 3.7 -14.8°
Drops below altitude 10° 02:14:51 10° 1° (N) 1,990 6.9 -14.3°
Sets 02:17:07 0° 5° (N) 2,895 8.0 -14.1°
